Weather History for Williams, AZ

Change the Weather History Date:

Monday, May 26, 2014

  Actual Average (KFLG) Record (KFLG)
Temperature  
Mean Temperature 60 °F 54 °F  
Max Temperature 80 °F 71 °F 87 °F (1951)
Min Temperature 39 °F 37 °F 19 °F (1916)
Degree Days  
Heating Degree Days 6 11  
Month to date heating degree days 365  
Since 1 July heating degree days 6721  
Cooling Degree Days 0 0  
Month to date cooling degree days 0  
Year to date cooling degree days 0  
Growing Degree Days 10 (Base 50)    
Moisture  
Dew Point 31 °F    
Average Humidity 35    
Maximum Humidity 75    
Minimum Humidity 14    
Precipitation  
Precipitation 0.00 in 0.02 in 0.75 in (1992)
Month to date precipitation 0.53  
Year to date precipitation 8.01  
Snow  
Snow 0.00 in 0.00 in T in (1993)
Month to date snowfall 0.7  
Since 1 July snowfall 101.7  
Snow Depth -    
Sea Level Pressure  
Sea Level Pressure 30.27 in    
Wind  
Wind Speed 7 mph (WSW)    
Max Wind Speed 16 mph    
Max Gust Speed 21 mph    
Visibility 10 miles    
Events      
T = Trace of Precipitation, MM = Missing Value Source: NWS Daily Summary

Daily Weather History Graph

Daily Weather History Graph

Search for Another Location

Airport:

Trip Planner

Search our weather history database for the weather conditions in past years. The results will help you decide how hot, cold, wet, or windy it might be!

Date:

Astronomy

May. 26, 2014 Rise Set
Actual Time 5:17 AM MST 7:34 PM MST
Civil Twilight 4:48 AM MST 8:03 PM MST
Nautical Twilight 4:13 AM MST 8:39 PM MST
Astronomical Twilight 3:34 AM MST 9:17 PM MST
Moon 3:56 AM MST (5/26) 5:45 PM MST (5/26)
Length of Visible Light 15h 14m
Length of Day
14h 16m
Waning Crescent, 4% of the Moon is Illuminated
May 26
Waning Crescent
May 28
New
Jun 5
First Quarter
Jun 12
Full
Jun 19
Last Quarter

Hourly Weather History & Observations

Time (MST) Temp. Windchill Dew Point Humidity Pressure Visibility Wind Dir Wind Speed Gust Speed Precip Events Conditions
12:15 AM 48.2 °F - 32.0 °F 54% 30.23 in 10.0 mi SSE 8.1 mph - N/A   Clear
12:35 AM 46.4 °F 43.5 °F 32.0 °F 57% 30.23 in 10.0 mi SSE 5.8 mph - N/A   Clear
12:55 AM 46.4 °F 42.9 °F 32.0 °F 57% 30.23 in 10.0 mi SSE 6.9 mph - N/A   Clear
1:35 AM 44.6 °F 40.2 °F 32.0 °F 61% 30.23 in 10.0 mi SSE 8.1 mph - N/A   Clear
1:55 AM 44.6 °F 40.2 °F 32.0 °F 61% 30.23 in 10.0 mi SSE 8.1 mph - N/A   Clear
2:15 AM 44.6 °F 40.2 °F 32.0 °F 61% 30.23 in 10.0 mi SSE 8.1 mph - N/A   Clear
2:35 AM 42.8 °F 38.0 °F 32.0 °F 66% 30.23 in 10.0 mi SSE 8.1 mph - N/A   Clear
2:55 AM 42.8 °F 38.0 °F 32.0 °F 66% 30.23 in 10.0 mi SSE 8.1 mph - N/A   Clear
3:15 AM 41.0 °F 35.8 °F 32.0 °F 70% 30.23 in 10.0 mi SE 8.1 mph - N/A   Clear
3:35 AM 41.0 °F 35.8 °F 32.0 °F 70% 30.23 in 10.0 mi SE 8.1 mph - N/A   Clear
3:55 AM 41.0 °F 35.2 °F 32.0 °F 70% 30.23 in 10.0 mi SE 9.2 mph - N/A   Clear
4:15 AM 41.0 °F 36.4 °F 32.0 °F 70% 30.23 in 10.0 mi SE 6.9 mph - N/A   Clear
4:35 AM 41.0 °F 35.2 °F 32.0 °F 70% 30.24 in 10.0 mi SSE 9.2 mph - N/A   Clear
5:15 AM 39.2 °F 33.6 °F 32.0 °F 75% 30.25 in 10.0 mi SE 8.1 mph - N/A   Clear
5:35 AM 39.2 °F 33.6 °F 32.0 °F 75% 30.25 in 10.0 mi SE 8.1 mph - N/A   Clear
5:55 AM 41.0 °F 35.8 °F 32.0 °F 70% 30.27 in 10.0 mi SE 8.1 mph - N/A   Clear
6:15 AM 44.6 °F 40.7 °F 32.0 °F 61% 30.27 in 10.0 mi SE 6.9 mph - N/A   Clear
6:35 AM 46.4 °F 43.5 °F 33.8 °F 62% 30.28 in 10.0 mi SE 5.8 mph - N/A   Clear
6:55 AM 50.0 °F - 33.8 °F 54% 30.28 in 10.0 mi SE 6.9 mph - N/A   Clear
7:15 AM 55.4 °F - 35.6 °F 47% 30.29 in 10.0 mi Calm Calm - N/A   Clear
7:35 AM 60.8 °F - 35.6 °F 39% 30.29 in 10.0 mi Calm Calm - N/A   Clear
7:55 AM 64.4 °F - 32.0 °F 30% 30.29 in 10.0 mi Calm Calm - N/A   Clear
8:15 AM 66.2 °F - 32.0 °F 28% 30.29 in 10.0 mi Calm Calm - N/A   Clear
8:35 AM 68.0 °F - 32.0 °F 26% 30.30 in 10.0 mi North 5.8 mph - N/A   Clear
8:55 AM 68.0 °F - 32.0 °F 26% 30.30 in 10.0 mi WNW 4.6 mph - N/A   Clear
9:15 AM 69.8 °F - 32.0 °F 25% 30.31 in 10.0 mi WNW 6.9 mph - N/A   Clear
9:35 AM 71.6 °F - 32.0 °F 23% 30.31 in 10.0 mi NW 12.7 mph 18.4 mph N/A   Clear
9:55 AM 71.6 °F - 32.0 °F 23% 30.31 in 10.0 mi NW 10.4 mph - N/A   Clear
10:15 AM 71.6 °F - 32.0 °F 23% 30.31 in 10.0 mi North 8.1 mph 17.3 mph N/A   Clear
10:55 AM 73.4 °F - 32.0 °F 22% 30.31 in 10.0 mi NW 10.4 mph 20.7 mph N/A   Clear
11:15 AM 75.2 °F - 30.2 °F 19% 30.31 in 10.0 mi WNW 11.5 mph 17.3 mph N/A   Clear
11:35 AM 73.4 °F - 32.0 °F 22% 30.30 in 10.0 mi NW 9.2 mph - N/A   Clear
11:55 AM 75.2 °F - 28.4 °F 18% 30.30 in 10.0 mi NNW 16.1 mph - N/A   Clear
12:15 PM 75.2 °F - 28.4 °F 18% 30.30 in 10.0 mi NW 10.4 mph 18.4 mph N/A   Clear
12:35 PM 75.2 °F - 28.4 °F 18% 30.30 in 10.0 mi NNW 13.8 mph 18.4 mph N/A   Clear
1:15 PM 77.0 °F - 28.4 °F 17% 30.29 in 10.0 mi WNW 9.2 mph - N/A   Clear
1:55 PM 75.2 °F - 28.4 °F 18% 30.28 in 10.0 mi North 5.8 mph - N/A   Partly Cloudy
2:15 PM 78.8 °F - 28.4 °F 16% 30.27 in 10.0 mi WSW 9.2 mph 17.3 mph N/A   Partly Cloudy
2:35 PM 80.6 °F - 28.4 °F 15% 30.27 in 10.0 mi WNW 10.4 mph 17.3 mph N/A   Clear
2:55 PM 77.0 °F - 28.4 °F 17% 30.27 in 10.0 mi NE 3.5 mph - N/A   Partly Cloudy
3:15 PM 77.0 °F - 28.4 °F 17% 30.26 in 10.0 mi Calm Calm - N/A   Partly Cloudy
3:35 PM 78.8 °F - 28.4 °F 16% 30.25 in 10.0 mi West 3.5 mph - N/A   Mostly Cloudy
3:55 PM 77.0 °F - 28.4 °F 17% 30.25 in 10.0 mi North 8.1 mph - N/A   Partly Cloudy
4:15 PM 80.6 °F - 28.4 °F 15% 30.24 in 10.0 mi NNE 9.2 mph - N/A   Clear
4:35 PM 78.8 °F - 28.4 °F 16% 30.24 in 10.0 mi Calm Calm - N/A   Clear
4:55 PM 77.0 °F - 26.6 °F 16% 30.24 in 10.0 mi North 4.6 mph - N/A   Partly Cloudy
5:15 PM 80.6 °F - 26.6 °F 14% 30.23 in 10.0 mi WNW 4.6 mph - N/A   Mostly Cloudy
5:35 PM 77.0 °F - 28.4 °F 17% 30.24 in 10.0 mi NNW 6.9 mph - N/A   Mostly Cloudy
5:55 PM 75.2 °F - 28.4 °F 18% 30.23 in 10.0 mi North 4.6 mph - N/A   Partly Cloudy
6:15 PM 77.0 °F - 28.4 °F 17% 30.24 in 10.0 mi NW 9.2 mph - N/A   Scattered Clouds
6:35 PM 77.0 °F - 28.4 °F 17% 30.24 in 10.0 mi NNW 6.9 mph - N/A   Partly Cloudy
6:55 PM 77.0 °F - 28.4 °F 17% 30.25 in 10.0 mi NNE 6.9 mph - N/A   Partly Cloudy
7:15 PM 75.2 °F - 28.4 °F 18% 30.25 in 10.0 mi Calm Calm - N/A   Mostly Cloudy
7:55 PM 71.6 °F - 26.6 °F 19% 30.26 in 10.0 mi Calm Calm - N/A   Scattered Clouds
8:15 PM 68.0 °F - 28.4 °F 23% 30.27 in 10.0 mi Calm Calm - N/A   Mostly Cloudy
8:55 PM 64.4 °F - 32.0 °F 30% 30.29 in 10.0 mi South 4.6 mph - N/A   Clear
9:15 PM 64.4 °F - 32.0 °F 30% 30.29 in 10.0 mi Calm Calm - N/A   Partly Cloudy
9:55 PM 59.0 °F - 32.0 °F 36% 30.31 in 10.0 mi Calm Calm - N/A   Clear
10:15 PM 62.6 °F - 32.0 °F 32% 30.31 in 10.0 mi Calm Calm - N/A   Scattered Clouds
10:35 PM 64.4 °F - 32.0 °F 30% 30.31 in 10.0 mi SW 5.8 mph - N/A   Mostly Cloudy
10:55 PM 64.4 °F - 32.0 °F 30% 30.32 in 10.0 mi SW 5.8 mph - N/A   Scattered Clouds
11:15 PM 64.4 °F - 32.0 °F 30% 30.32 in 10.0 mi SW 6.9 mph - N/A   Clear
11:35 PM 64.4 °F - 32.0 °F 30% 30.32 in 10.0 mi SW 8.1 mph - N/A   Clear
11:55 PM 62.6 °F - 32.0 °F 32% 30.33 in 10.0 mi SW 6.9 mph - N/A   Clear